SCP
0 0 0 0 0 0 -0 0 -0 0 -0 -0 -0 -0 -0 -0 -0 -0 0 0 -0 -0 -0 -0 -0 -0 -0 -0 -0 -0 -0 -0 -0 -0 -0 -0 -0 -0 0 -0 -0 0 -0 -0 -0 -0 0 0 -0
0 0 0 0 0 0 -0 -0 0 0 -0 -0 -0 0 0 -0 0 -0 -0 0 -0 -0 -0 -0 -0 -0 -0 -0 -0 0 -0 -0 -0 -0 -0 0 0 -0 -0 0 -0 -0 -0 -0 -0 -0 -0 0 0
0 0 0 0 0 0 0 -0 0 -0 -0 -0 -0 0 0 -0 -0 -0 0 -0 -0 -0 -0 -0 -0 -0 -0 -0 0 0 -0 -0 0 0 0 0 0 0 -0 -0 -0 -0 -0 -0 -0 -0 -0 -0 -0
0 0 0 0 0 0 0 -0 0 -0 -0 -0 0 0 0 0 0 0 -0 -0 -0 -0 -0 -0 -0 -0 -0 -0 -0 -0 -0 -0 0 0 0 0 0 0 0 -0 -0 -0 -0 -0 -0 -0 -0 -0 0
0 0 0 0 0 0 0 0 0 -0 0 -0 -0 0 0 -0 0 -0 -0 -0 -0 -0 -0 -0 -0 -0 -0 -0 -0 -0 -0 -0 -0 -0 -0 0 0 0 0 0 0 0 -0 -0 -0 -0 -0 0 0
0 0 0 0 0 0 0 0 0 0 -0 -0 0 -0 0 -0 0 0 -0 -0 -0 -0 -0 -0 -0 -0 -0 -0 -0 -0 -0 0 -0 -0 -0 0 0 -0 -0 0 0 0 0 0 0 0 0 0 0
0 0 0 0 0 0 0 0 0 0 -0 -0 0 0 -0 -0 0 0 0 0 0 0 -0 -0 -0 -0 -0 -0 -0 -0 -0 -0 -0 -0 -0 0 0 0 0 0 0 0 0 0 0 0 0 0 0
0 0 0 0 0 0 0 0 0 0 0 0 -0 -0 -0 -0 -0 -0 0 0 0 0 0 -0 -0 -0 -0 -0 -0 -0 -0 -0 -0 -0 -0 -0 0 0 0 0 0 0 -0 -0 0 0 0 0 -0
0 0 0 0 0 0 0 0 0 0 0 -0 -0 -0 -0 -0 -0 0 0 -0 -0 -0 -0 -0 -0 0 0 0 0 0 0 0 0 -0 -0 0 -0 -0 -0 -0 -0 0 -0 -0 -0 -0 0 0 0
0 0 0 0 0 0 0 0 0 0 0 -0 -0 -0 0 0 -0 -0 -0 -0 -0 -0 -0 -0 -0 0 0 0 0 0 0 0 0 0 0 0 -0 -0 -0 0 0 0 0 0 -0 -0 0 0 0
0 0 0 0 0 0 0 0 0 0 0 -0 -0 0 0 0 0 0 -0 -0 -0 -0 -0 0 0 0 0 0 0 0 0 0 -0 0 0 0 0 0 -0 0 0 0 0 0 0 0 0 0 0
0 0 0 0 0 0 0 0 0 0 0 0 0 0 0 0 0 -0 -0 -0 -0 -0 -0 0 0 0 0 0 0 0 0 0 -0 -0 -0 0 0 0 0 0 0 0 0 0 0 0 0 0 0
0 0 0 0 0 0 0 0 0 0 0 0 0 0 0 0 0 -0 -0 0 0 -0 -0 0 0 0 0 0 0 0 0 0 0 0 0 0 0 0 0 0 0 0 0 0 0 0 0 0 0
0 0 0 0 0 0 0 0 0 0 0 0 0 0 0 0 0 0 0 -0 0 0 0 0 0 0 0 0 0 0 0 0 0 0 0 0 0 0 0 0 0 0 0 0 0 0 0 0 0
0 0 0 0 0 0 0 0 0 0 0 0 0 0 0 0 0 0 0 0 0 0 0 0 0 0 0 0 0 0 0 0 0 0 0 0 0 0 0 0 0 0 0 0 0 0 0 0 0
0 0 0 0 0 0 0 0 0 0 0 0 0 0 0 0 0 0 0 0 0 0 0 0 0 0 0 0 0 0 0 0 0 0 0 0 0 0 0 0 0 0 0 0 0 0 0 0 0
0 0 0 0 0 0 0 0 0 0 0 0 0 0 0 0 0 0 0 0 0 0 0 0 0 0 0 0 0 0 0 0 0 0 0 0 0 0 0 0 0 0 0 0 0 0 0 0 0
0 0 0 0 0 0 0 0 0 0 0 0 0 0 0 0 0 0 0 0 0 0 0 0 0 0 0 0 0 0 0 0 0 0 0 0 0 0 0 0 0 0 0 0 0 0 0 0 0
0 0 0 0 0 0 0 0 0 0 0 0 0 0 0 0 0 0 0 0 0 0 0 0 0 0 0 0 0 0 0 0 0 0 0 0 0 0 0 0 0 0 0 0 0 0 0 0 0
0 0 0 0 0 0 0 0 0 0 0 0 0 0 0 0 0 0 0 0 0 0 0 0 0 0 0 0 0 0 0 0 0 0 0 0 0 0 0 0 0 0 0 0 0 0 0 0 0
0 0 0 0 0 0 0 0 0 0 0 0 0 0 0 0 0 0 0 0 0 0 0 0 0 0 0 0 0 0 0 0 0 0 0 0 0 0 0 0 0 0 0 0 0 0 0 0 0
0 0 0 0 0 0 0 -0 0 0 0 0 0 0 0 0 0 0 0 0 0 0 0 0 0 0 0 0 0 0 0 0 0 0 0 0 0 0 0 0 0 0 0 0 0 0 0 0 0
0 0 0 0 0 0 0 0 -0 0 0 0 0 0 0 0 0 0 0 0 0 0 0 0 0 0 0 0 0 0 0 0 0 0 0 0 0 0 0 0 0 0 0 0 0 0 0 0 0
0 0 0 0 0 0 0 0 -0 0 0 0 0 0 0 0 0 0 0 0 0 0 0 0 0 0 0 0 0 0 0 0 0 0 0 0 0 0 0 0 0 0 0 0 0 0 0 0 0
0 0 0 0 0 0 0 0 0 0 0 0 0 0 0 0 0 0 0 0 0 0 0 0 0 0 0 0 0 0 0 0 0 0 0 0 0 0 0 0 0 0 0 0 0 0 0 0 0
0 0 0 0 0 0 0 0 0 -0 0 -0 0 0 0 0 0 0 0 0 0 0 0 0 0 0 0 0 0 0 0 0 0 0 0 0 0 0 0 0 0 0 0 0 0 0 0 0 0
0 0 0 0 0 0 0 0 0 0 -0 0 0 0 0 0 0 0 0 0 0 0 0 0 0 0 0 0 0 0 0 0 0 0 0 0 0 0 0 0 0 0 0 0 0 0 0 0 0
0 0 0 0 0 0 0 0 0 0 -0 0 0 0 0 0 0 0 0 0 0 0 0 0 0 0 0 0 0 0 0 0 0 0 0 0 0 0 0 0 0 0 0 0 0 0 0 0 0
0 0 0 0 0 0 0 0 0 0 0 0 0 0 0 0 0 0 0 0 0 0 0 0 0 0 0 0 0 0 0 0 0 0 0 0 0 0 0 0 0 0 0 0 0 0 0 0 0
0 0 0 0 0 0 0 0 0 0 0 0 0 0 0 0 0 0 0 0 0 0 0 0 0 0 0 0 0 0 0 0 0 0 0 0 0 0 0 0 0 0 0 0 0 0 0 0 0
Wind_Speed_500mb
4 7 15 8 7 8 1 6 4 8 5 6 14 10 9 8 4 4 39 26 33 29 29 25 19 20 20 17 11 14 20 18 17 16 14 11 9 8 9 17 19 18 18 20 16 11 8 7 6
3 16 16 6 8 5 4 3 10 8 19 31 24 15 8 4 10 29 35 39 30 25 27 25 20 19 18 16 14 14 12 15 11 11 10 6 5 7 17 20 22 22 17 16 14 9 6 3 4
9 20 8 8 5 7 8 7 10 21 24 9 10 11 7 9 20 44 35 39 34 27 27 25 21 18 16 15 15 15 12 10 12 14 14 13 12 10 9 14 17 19 15 13 12 10 5 2 6
13 10 11 7 6 3 5 10 16 24 6 7 21 13 11 15 29 25 35 35 34 28 26 23 18 15 13 14 14 14 11 10 15 16 14 14 14 12 10 10 12 20 14 7 9 9 6 2 6
15 7 8 8 4 3 1 18 43 11 16 15 10 10 10 30 19 30 33 34 32 29 26 22 17 13 12 12 12 12 11 10 8 11 12 11 12 12 11 8 9 9 10 11 8 3 7 8 5
7 6 8 7 6 1 5 26 23 8 14 16 15 19 14 24 27 32 29 33 27 23 24 23 19 15 13 11 10 9 9 9 10 3 4 5 6 7 9 9 6 5 5 7 7 7 1 6 6
11 7 11 11 12 6 10 28 22 14 16 10 26 11 16 29 36 30 33 30 27 22 17 19 19 17 14 11 9 7 6 7 6 4 3 3 5 6 6 5 5 5 5 5 5 4 5 1 5
7 10 9 6 13 10 17 20 21 18 8 27 15 10 14 42 44 36 34 29 25 19 16 15 17 16 13 10 8 6 4 3 2 2 2 2 3 2 2 2 2 1 3 5 6 6 5 5 6
3 8 7 14 14 10 29 9 17 16 28 14 15 13 21 50 48 41 39 35 30 24 18 17 18 15 14 13 10 8 6 5 7 7 7 7 7 7 6 5 3 2 2 3 4 5 6 7 8
9 6 16 11 10 10 29 20 31 15 19 8 16 18 41 51 49 44 42 38 32 28 21 18 17 14 12 9 8 7 4 4 9 8 7 10 12 13 12 10 9 9 8 8 9 10 11 11 11
7 3 4 2 5 20 28 19 21 28 5 18 29 31 51 53 49 44 39 34 28 25 24 20 17 15 12 8 6 4 4 5 6 7 5 7 12 14 14 14 13 12 12 11 13 14 16 16 15
6 8 4 6 3 16 23 30 17 26 11 20 19 32 46 51 50 46 42 36 32 29 24 22 20 16 13 11 7 6 5 7 7 9 10 9 9 9 12 17 17 16 14 15 16 17 19 20 20
5 2 9 12 8 10 28 11 13 31 12 16 26 38 44 45 45 41 36 33 32 31 27 24 22 17 14 13 10 9 10 13 13 15 16 15 14 14 14 10 11 13 17 19 20 20 22 23 24
2 5 6 11 11 9 7 4 14 27 16 22 33 41 43 42 42 41 41 39 38 31 31 27 24 20 20 19 17 14 16 18 23 25 23 23 21 19 20 19 19 18 18 19 24 25 26 25 25
2 4 3 9 4 4 11 3 9 8 25 22 36 42 45 46 46 45 41 41 39 35 31 32 29 27 26 25 24 23 21 24 26 30 32 32 31 26 26 27 27 24 26 26 27 28 32 32 30
9 10 3 4 2 2 7 12 6 11 18 25 33 43 47 49 50 47 44 43 41 39 38 37 38 35 31 30 29 28 28 30 32 33 37 39 39 35 30 28 26 28 31 30 31 32 33 31 33
12 6 4 8 3 3 5 13 2 13 16 21 30 42 49 51 53 51 49 49 47 46 44 44 43 39 37 34 32 31 34 36 40 43 41 41 42 41 39 35 29 32 32 31 34 34 35 35 34
11 9 7 10 5 6 5 12 6 4 15 20 24 34 45 51 59 53 53 55 55 55 54 52 51 48 42 40 36 32 35 41 46 48 44 42 42 41 41 39 34 34 28 30 37 39 42 42 36
10 7 9 5 5 2 7 11 21 15 16 21 35 40 42 53 56 56 58 59 62 63 62 62 59 53 49 46 41 35 37 42 46 43 39 40 41 40 39 39 36 29 30 35 36 37 28 30 33
10 10 6 1 6 3 8 16 19 15 20 39 47 47 50 58 64 65 62 63 68 66 64 67 64 61 57 52 45 38 41 43 42 38 35 35 34 34 34 34 32 28 31 32 34 27 25 26 23
3 11 9 5 2 6 6 13 12 9 22 46 56 63 65 73 74 69 63 63 64 67 73 73 71 66 60 53 43 40 45 44 39 35 30 26 26 26 27 29 28 27 30 33 34 32 33 38 29
11 13 12 11 7 7 4 13 10 12 11 15 46 59 72 75 75 75 76 77 76 67 61 65 66 65 59 51 43 43 43 40 37 32 27 23 22 23 26 30 31 31 30 30 30 27 29 29 29
6 10 14 6 9 4 5 5 11 5 12 22 40 53 59 60 56 56 59 63 69 74 65 62 63 62 56 49 44 45 41 38 37 32 29 24 22 22 24 27 28 28 28 27 25 25 24 27 28
17 13 14 10 6 4 13 12 9 10 14 12 15 22 16 21 26 27 30 39 49 58 61 64 61 59 55 50 47 43 38 36 35 31 28 25 23 21 21 22 24 24 21 20 22 23 25 27 29
5 12 5 5 1 11 3 7 22 8 19 26 27 26 28 22 18 25 33 33 38 51 53 62 62 58 54 50 45 38 34 33 31 29 28 25 22 21 20 19 18 18 18 20 22 25 27 29 30
9 10 10 13 9 5 3 15 12 16 37 42 39 36 31 25 25 31 33 31 29 32 44 56 61 57 54 47 39 35 33 32 29 28 26 24 22 21 19 18 19 20 21 22 23 25 27 29 30
11 11 9 11 5 4 9 13 17 14 24 31 30 22 21 21 24 24 26 23 23 23 33 46 52 51 44 40 36 35 34 30 27 26 24 23 24 24 22 22 23 23 23 24 24 26 27 29 31
12 17 5 5 4 7 8 9 12 7 9 13 15 21 21 21 19 13 10 12 13 18 26 39 42 40 38 36 35 34 32 31 30 28 28 28 29 29 29 29 27 27 27 28 28 28 29 30 32
7 6 5 9 9 10 3 11 13 10 8 12 16 15 13 18 18 15 11 7 9 16 25 32 38 38 36 35 36 36 35 34 32 31 31 32 33 34 34 34 33 33 32 32 32 32 31 32 32
3 11 10 8 8 5 4 14 11 14 12 10 3 11 9 9 6 7 6 8 11 16 25 30 35 37 35 36 39 40 42 42 39 36 35 35 37 38 37 37 37 37 36 36 35 35 35 34 33
Wind_Direction_500mb
326 160 149 140 66 66 117 169 123 125 145 163 141 166 158 86 135 153 142 145 155 161 152 146 140 126 127 127 106 93 108 133 145 143 144 142 139 121 105 139 124 142 140 131 120 118 110 87 67
155 156 146 118 89 93 241 218 153 161 131 116 105 104 75 88 116 142 144 147 152 157 151 146 139 131 127 131 135 111 121 101 117 138 136 140 132 97 112 140 119 100 145 149 153 142 121 67 41
152 164 145 94 106 167 170 197 147 131 134 130 111 91 90 130 137 141 145 149 151 154 152 150 144 136 126 124 133 127 110 101 108 113 109 98 97 96 111 102 124 108 90 155 155 151 140 23 350
161 145 73 86 140 224 161 163 141 137 111 135 127 79 97 132 137 157 152 154 152 153 155 155 146 140 130 123 129 137 118 111 101 98 98 91 84 75 95 99 109 112 112 108 161 180 179 118 5
161 126 70 80 121 263 294 144 152 140 133 134 146 140 111 151 142 152 157 158 156 155 161 162 155 145 135 126 123 124 122 118 94 101 83 78 77 69 78 106 111 117 109 83 84 112 176 176 99
122 102 82 160 162 169 96 149 158 122 139 145 123 122 145 165 158 151 155 154 155 159 161 166 164 154 143 133 128 123 124 118 131 122 100 72 71 70 61 73 94 88 79 80 44 42 135 213 279
109 84 156 136 150 144 172 157 160 147 145 180 148 119 152 166 159 150 150 151 151 159 164 172 175 171 162 156 146 140 136 132 133 137 110 58 48 47 50 57 83 94 88 90 82 52 40 353 278
92 91 116 168 174 184 170 157 169 155 156 145 170 170 171 166 161 156 154 158 163 166 174 184 188 188 187 183 183 186 191 196 198 222 257 292 318 323 358 28 33 16 21 18 22 20 5 339 319
51 73 156 176 168 173 163 135 153 146 147 165 184 172 158 163 167 169 168 171 176 178 180 188 189 194 198 201 205 213 218 224 238 244 261 267 268 270 267 274 288 320 328 327 329 331 329 328 317
63 106 195 181 167 165 170 155 152 141 154 185 181 176 161 170 174 179 180 177 176 178 174 169 170 172 184 190 196 201 220 277 292 269 267 264 265 265 263 264 265 268 278 289 291 295 299 305 310
13 119 166 121 182 164 157 144 157 137 210 205 194 172 169 176 181 187 187 184 173 171 176 172 171 172 175 185 198 217 261 301 314 333 346 300 279 275 267 259 261 262 267 276 285 290 292 293 297
91 32 56 19 231 169 168 153 153 166 177 199 200 187 175 183 188 187 188 185 186 191 188 188 189 193 193 200 207 227 269 291 304 294 296 304 313 314 289 266 263 258 264 275 281 285 288 289 290
73 17 65 59 98 170 157 145 174 190 181 192 186 187 187 192 194 193 191 192 195 199 199 201 208 211 217 229 240 272 298 300 292 287 284 286 289 294 295 297 297 311 275 298 291 293 290 290 290
5 98 106 73 80 101 125 129 169 203 183 178 182 189 196 201 200 197 199 197 203 203 206 212 224 228 235 247 257 272 286 298 292 284 280 277 277 278 280 277 280 290 298 304 300 299 293 294 292
104 101 46 41 57 95 124 99 230 187 198 190 189 196 201 207 206 207 207 208 210 214 215 223 232 238 247 257 259 268 280 290 292 290 275 269 270 272 268 272 276 278 277 286 293 291 296 294 297
61 50 79 306 165 28 128 244 182 190 191 204 202 204 209 213 217 216 218 221 222 226 229 233 237 242 248 257 259 268 270 286 284 288 275 266 263 264 262 267 271 286 278 280 284 288 291 291 293
24 158 188 316 296 137 120 235 170 194 200 209 213 216 218 220 223 222 223 228 230 233 237 239 238 244 251 252 255 265 270 281 282 285 273 261 258 257 254 255 250 256 267 281 286 293 289 285 286
172 172 219 208 348 45 83 255 228 141 218 229 228 228 230 228 229 228 230 233 236 239 241 241 239 241 248 249 249 263 275 283 285 286 272 261 257 255 252 250 249 253 271 278 284 285 283 281 279
123 122 168 240 354 169 226 260 269 286 270 256 242 238 236 238 238 234 236 238 241 242 244 240 240 240 244 245 247 256 277 284 287 283 272 262 256 253 250 247 249 267 272 272 282 287 293 298 288
140 140 190 27 14 99 7 277 270 253 251 252 254 254 249 247 248 246 244 243 245 247 246 241 240 242 241 242 247 260 278 282 283 277 270 261 255 251 247 243 243 250 268 277 282 277 279 281 280
102 160 168 162 67 59 329 277 254 272 247 254 252 253 254 251 251 251 249 249 251 251 249 246 242 242 240 241 245 261 276 274 274 269 263 255 250 246 240 237 239 254 261 271 275 273 271 276 280
192 181 148 138 105 237 6 279 279 265 273 265 259 254 254 256 256 257 257 256 255 256 254 248 241 238 236 238 249 263 270 271 266 256 251 242 238 237 236 236 242 254 270 269 279 277 284 289 289
220 149 149 129 109 91 339 307 273 359 298 261 255 260 261 262 265 265 265 264 259 256 253 247 239 234 233 237 250 262 260 258 252 245 243 240 236 232 231 234 244 254 266 274 280 289 293 295 294
142 93 52 53 76 313 191 174 223 189 211 273 257 255 276 282 270 270 275 271 254 247 245 240 232 228 229 238 248 258 256 249 243 239 232 227 220 216 220 230 246 259 269 279 288 293 295 295 294
103 104 40 16 6 231 347 172 260 259 235 232 259 281 291 278 277 280 293 289 263 246 237 231 227 225 231 238 247 249 248 236 231 227 221 216 214 219 226 233 246 262 274 282 289 292 294 294 293
182 155 161 193 197 219 88 232 254 236 275 277 281 293 295 296 288 277 274 283 270 249 236 227 224 227 231 238 243 243 234 227 222 219 217 219 221 221 229 244 258 268 275 281 286 290 292 295 295
193 207 154 106 44 49 213 282 285 274 276 276 280 290 309 322 314 299 269 258 258 250 232 223 223 226 232 237 238 234 225 222 218 220 223 228 232 237 249 257 263 267 273 281 286 291 295 297 297
160 152 96 13 139 258 265 272 236 271 240 302 326 296 297 334 333 328 302 275 248 228 213 217 223 229 235 237 237 227 223 218 217 222 230 238 244 249 258 261 262 267 274 279 283 288 293 297 299
143 173 143 131 157 186 248 257 214 227 255 265 297 303 318 316 317 306 308 284 235 213 210 214 223 229 233 239 234 231 229 228 229 234 239 244 248 254 259 260 264 267 271 276 281 285 289 291 291
313 192 162 145 223 221 172 259 197 208 215 163 320 6 327 316 348 336 289 275 256 236 225 225 226 231 238 240 237 232 232 233 236 241 245 250 253 256 258 262 266 269 273 276 279 281 283 284 284
Wind_Speed_850mb
4 7 15 8 7 8 1 6 4 8 5 6 14 10 9 8 4 4 39 26 33 29 29 25 19 20 20 17 11 14 20 18 17 16 14 11 9 8 9 17 19 18 18 20 16 11 8 7 6
3 16 16 6 8 5 4 3 10 8 19 31 24 15 8 4 10 29 35 39 30 25 27 25 20 19 18 16 14 14 12 15 11 11 10 6 5 7 17 20 22 22 17 16 14 9 6 3 4
9 20 8 8 5 7 8 7 10 21 24 9 10 11 7 9 20 44 35 39 34 27 27 25 21 18 16 15 15 15 12 10 12 14 14 13 12 10 9 14 17 19 15 13 12 10 5 2 6
13 10 11 7 6 3 5 10 16 24 6 7 21 13 11 15 29 25 35 35 34 28 26 23 18 15 13 14 14 14 11 10 15 16 14 14 14 12 10 10 12 20 14 7 9 9 6 2 6
15 7 8 8 4 3 1 18 43 11 16 15 10 10 10 30 19 30 33 34 32 29 26 22 17 13 12 12 12 12 11 10 8 11 12 11 12 12 11 8 9 9 10 11 8 3 7 8 5
7 6 8 7 6 1 5 26 23 8 14 16 15 19 14 24 27 32 29 33 27 23 24 23 19 15 13 11 10 9 9 9 10 3 4 5 6 7 9 9 6 5 5 7 7 7 1 6 6
11 7 11 11 12 6 10 28 22 14 16 10 26 11 16 29 36 30 33 30 27 22 17 19 19 17 14 11 9 7 6 7 6 4 3 3 5 6 6 5 5 5 5 5 5 4 5 1 5
7 10 9 6 13 10 17 20 21 18 8 27 15 10 14 42 44 36 34 29 25 19 16 15 17 16 13 10 8 6 4 3 2 2 2 2 3 2 2 2 2 1 3 5 6 6 5 5 6
3 8 7 14 14 10 29 9 17 16 28 14 15 13 21 50 48 41 39 35 30 24 18 17 18 15 14 13 10 8 6 5 7 7 7 7 7 7 6 5 3 2 2 3 4 5 6 7 8
9 6 16 11 10 10 29 20 31 15 19 8 16 18 41 51 49 44 42 38 32 28 21 18 17 14 12 9 8 7 4 4 9 8 7 10 12 13 12 10 9 9 8 8 9 10 11 11 11
7 3 4 2 5 20 28 19 21 28 5 18 29 31 51 53 49 44 39 34 28 25 24 20 17 15 12 8 6 4 4 5 6 7 5 7 12 14 14 14 13 12 12 11 13 14 16 16 15
6 8 4 6 3 16 23 30 17 26 11 20 19 32 46 51 50 46 42 36 32 29 24 22 20 16 13 11 7 6 5 7 7 9 10 9 9 9 12 17 17 16 14 15 16 17 19 20 20
5 2 9 12 8 10 28 11 13 31 12 16 26 38 44 45 45 41 36 33 32 31 27 24 22 17 14 13 10 9 10 13 13 15 16 15 14 14 14 10 11 13 17 19 20 20 22 23 24
2 5 6 11 11 9 7 4 14 27 16 22 33 41 43 42 42 41 41 39 38 31 31 27 24 20 20 19 17 14 16 18 23 25 23 23 21 19 20 19 19 18 18 19 24 25 26 25 25
2 4 3 9 4 4 11 3 9 8 25 22 36 42 45 46 46 45 41 41 39 35 31 32 29 27 26 25 24 23 21 24 26 30 32 32 31 26 26 27 27 24 26 26 27 28 32 32 30
9 10 3 4 2 2 7 12 6 11 18 25 33 43 47 49 50 47 44 43 41 39 38 37 38 35 31 30 29 28 28 30 32 33 37 39 39 35 30 28 26 28 31 30 31 32 33 31 33
12 6 4 8 3 3 5 13 2 13 16 21 30 42 49 51 53 51 49 49 47 46 44 44 43 39 37 34 32 31 34 36 40 43 41 41 42 41 39 35 29 32 32 31 34 34 35 35 34
11 9 7 10 5 6 5 12 6 4 15 20 24 34 45 51 59 53 53 55 55 55 54 52 51 48 42 40 36 32 35 41 46 48 44 42 42 41 41 39 34 34 28 30 37 39 42 42 36
10 7 9 5 5 2 7 11 21 15 16 21 35 40 42 53 56 56 58 59 62 63 62 62 59 53 49 46 41 35 37 42 46 43 39 40 41 40 39 39 36 29 30 35 36 37 28 30 33
10 10 6 1 6 3 8 16 19 15 20 39 47 47 50 58 64 65 62 63 68 66 64 67 64 61 57 52 45 38 41 43 42 38 35 35 34 34 34 34 32 28 31 32 34 27 25 26 23
3 11 9 5 2 6 6 13 12 9 22 46 56 63 65 73 74 69 63 63 64 67 73 73 71 66 60 53 43 40 45 44 39 35 30 26 26 26 27 29 28 27 30 33 34 32 33 38 29
11 13 12 11 7 7 4 13 10 12 11 15 46 59 72 75 75 75 76 77 76 67 61 65 66 65 59 51 43 43 43 40 37 32 27 23 22 23 26 30 31 31 30 30 30 27 29 29 29
6 10 14 6 9 4 5 5 11 5 12 22 40 53 59 60 56 56 59 63 69 74 65 62 63 62 56 49 44 45 41 38 37 32 29 24 22 22 24 27 28 28 28 27 25 25 24 27 28
17 13 14 10 6 4 13 12 9 10 14 12 15 22 16 21 26 27 30 39 49 58 61 64 61 59 55 50 47 43 38 36 35 31 28 25 23 21 21 22 24 24 21 20 22 23 25 27 29
5 12 5 5 1 11 3 7 22 8 19 26 27 26 28 22 18 25 33 33 38 51 53 62 62 58 54 50 45 38 34 33 31 29 28 25 22 21 20 19 18 18 18 20 22 25 27 29 30
9 10 10 13 9 5 3 15 12 16 37 42 39 36 31 25 25 31 33 31 29 32 44 56 61 57 54 47 39 35 33 32 29 28 26 24 22 21 19 18 19 20 21 22 23 25 27 29 30
11 11 9 11 5 4 9 13 17 14 24 31 30 22 21 21 24 24 26 23 23 23 33 46 52 51 44 40 36 35 34 30 27 26 24 23 24 24 22 22 23 23 23 24 24 26 27 29 31
12 17 5 5 4 7 8 9 12 7 9 13 15 21 21 21 19 13 10 12 13 18 26 39 42 40 38 36 35 34 32 31 30 28 28 28 29 29 29 29 27 27 27 28 28 28 29 30 32
7 6 5 9 9 10 3 11 13 10 8 12 16 15 13 18 18 15 11 7 9 16 25 32 38 38 36 35 36 36 35 34 32 31 31 32 33 34 34 34 33 33 32 32 32 32 31 32 32
3 11 10 8 8 5 4 14 11 14 12 10 3 11 9 9 6 7 6 8 11 16 25 30 35 37 35 36 39 40 42 42 39 36 35 35 37 38 37 37 37 37 36 36 35 35 35 34 33
Wind_Direction_850mb
326 160 149 140 66 66 117 169 123 125 145 163 141 166 158 86 135 153 142 145 155 161 152 146 140 126 127 127 106 93 108 133 145 143 144 142 139 121 105 139 124 142 140 131 120 118 110 87 67
155 156 146 118 89 93 241 218 153 161 131 116 105 104 75 88 116 142 144 147 152 157 151 146 139 131 127 131 135 111 121 101 117 138 136 140 132 97 112 140 119 100 145 149 153 142 121 67 41
152 164 145 94 106 167 170 197 147 131 134 130 111 91 90 130 137 141 145 149 151 154 152 150 144 136 126 124 133 127 110 101 108 113 109 98 97 96 111 102 124 108 90 155 155 151 140 23 350
161 145 73 86 140 224 161 163 141 137 111 135 127 79 97 132 137 157 152 154 152 153 155 155 146 140 130 123 129 137 118 111 101 98 98 91 84 75 95 99 109 112 112 108 161 180 179 118 5
161 126 70 80 121 263 294 144 152 140 133 134 146 140 111 151 142 152 157 158 156 155 161 162 155 145 135 126 123 124 122 118 94 101 83 78 77 69 78 106 111 117 109 83 84 112 176 176 99
122 102 82 160 162 169 96 149 158 122 139 145 123 122 145 165 158 151 155 154 155 159 161 166 164 154 143 133 128 123 124 118 131 122 100 72 71 70 61 73 94 88 79 80 44 42 135 213 279
109 84 156 136 150 144 172 157 160 147 145 180 148 119 152 166 159 150 150 151 151 159 164 172 175 171 162 156 146 140 136 132 133 137 110 58 48 47 50 57 83 94 88 90 82 52 40 353 278
92 91 116 168 174 184 170 157 169 155 156 145 170 170 171 166 161 156 154 158 163 166 174 184 188 188 187 183 183 186 191 196 198 222 257 292 318 323 358 28 33 16 21 18 22 20 5 339 319
51 73 156 176 168 173 163 135 153 146 147 165 184 172 158 163 167 169 168 171 176 178 180 188 189 194 198 201 205 213 218 224 238 244 261 267 268 270 267 274 288 320 328 327 329 331 329 328 317
63 106 195 181 167 165 170 155 152 141 154 185 181 176 161 170 174 179 180 177 176 178 174 169 170 172 184 190 196 201 220 277 292 269 267 264 265 265 263 264 265 268 278 289 291 295 299 305 310
13 119 166 121 182 164 157 144 157 137 210 205 194 172 169 176 181 187 187 184 173 171 176 172 171 172 175 185 198 217 261 301 314 333 346 300 279 275 267 259 261 262 267 276 285 290 292 293 297
91 32 56 19 231 169 168 153 153 166 177 199 200 187 175 183 188 187 188 185 186 191 188 188 189 193 193 200 207 227 269 291 304 294 296 304 313 314 289 266 263 258 264 275 281 285 288 289 290
73 17 65 59 98 170 157 145 174 190 181 192 186 187 187 192 194 193 191 192 195 199 199 201 208 211 217 229 240 272 298 300 292 287 284 286 289 294 295 297 297 311 275 298 291 293 290 290 290
5 98 106 73 80 101 125 129 169 203 183 178 182 189 196 201 200 197 199 197 203 203 206 212 224 228 235 247 257 272 286 298 292 284 280 277 277 278 280 277 280 290 298 304 300 299 293 294 292
104 101 46 41 57 95 124 99 230 187 198 190 189 196 201 207 206 207 207 208 210 214 215 223 232 238 247 257 259 268 280 290 292 290 275 269 270 272 268 272 276 278 277 286 293 291 296 294 297
61 50 79 306 165 28 128 244 182 190 191 204 202 204 209 213 217 216 218 221 222 226 229 233 237 242 248 257 259 268 270 286 284 288 275 266 263 264 262 267 271 286 278 280 284 288 291 291 293
24 158 188 316 296 137 120 235 170 194 200 209 213 216 218 220 223 222 223 228 230 233 237 239 238 244 251 252 255 265 270 281 282 285 273 261 258 257 254 255 250 256 267 281 286 293 289 285 286
172 172 219 208 348 45 83 255 228 141 218 229 228 228 230 228 229 228 230 233 236 239 241 241 239 241 248 249 249 263 275 283 285 286 272 261 257 255 252 250 249 253 271 278 284 285 283 281 279
123 122 168 240 354 169 226 260 269 286 270 256 242 238 236 238 238 234 236 238 241 242 244 240 240 240 244 245 247 256 277 284 287 283 272 262 256 253 250 247 249 267 272 272 282 287 293 298 288
140 140 190 27 14 99 7 277 270 253 251 252 254 254 249 247 248 246 244 243 245 247 246 241 240 242 241 242 247 260 278 282 283 277 270 261 255 251 247 243 243 250 268 277 282 277 279 281 280
102 160 168 162 67 59 329 277 254 272 247 254 252 253 254 251 251 251 249 249 251 251 249 246 242 242 240 241 245 261 276 274 274 269 263 255 250 246 240 237 239 254 261 271 275 273 271 276 280
192 181 148 138 105 237 6 279 279 265 273 265 259 254 254 256 256 257 257 256 255 256 254 248 241 238 236 238 249 263 270 271 266 256 251 242 238 237 236 236 242 254 270 269 279 277 284 289 289
220 149 149 129 109 91 339 307 273 359 298 261 255 260 261 262 265 265 265 264 259 256 253 247 239 234 233 237 250 262 260 258 252 245 243 240 236 232 231 234 244 254 266 274 280 289 293 295 294
142 93 52 53 76 313 191 174 223 189 211 273 257 255 276 282 270 270 275 271 254 247 245 240 232 228 229 238 248 258 256 249 243 239 232 227 220 216 220 230 246 259 269 279 288 293 295 295 294
103 104 40 16 6 231 347 172 260 259 235 232 259 281 291 278 277 280 293 289 263 246 237 231 227 225 231 238 247 249 248 236 231 227 221 216 214 219 226 233 246 262 274 282 289 292 294 294 293
182 155 161 193 197 219 88 232 254 236 275 277 281 293 295 296 288 277 274 283 270 249 236 227 224 227 231 238 243 243 234 227 222 219 217 219 221 221 229 244 258 268 275 281 286 290 292 295 295
193 207 154 106 44 49 213 282 285 274 276 276 280 290 309 322 314 299 269 258 258 250 232 223 223 226 232 237 238 234 225 222 218 220 223 228 232 237 249 257 263 267 273 281 286 291 295 297 297
160 152 96 13 139 258 265 272 236 271 240 302 326 296 297 334 333 328 302 275 248 228 213 217 223 229 235 237 237 227 223 218 217 222 230 238 244 249 258 261 262 267 274 279 283 288 293 297 299
143 173 143 131 157 186 248 257 214 227 255 265 297 303 318 316 317 306 308 284 235 213 210 214 223 229 233 239 234 231 229 228 229 234 239 244 248 254 259 260 264 267 271 276 281 285 289 291 291
313 192 162 145 223 221 172 259 197 208 215 163 320 6 327 316 348 336 289 275 256 236 225 225 226 231 238 240 237 232 232 233 236 241 245 250 253 256 258 262 266 269 273 276 279 281 283 284 284